Weather in Andromer

Russia / Pskov Oblast     58°21′36″N   29°33′32″E
temp.,
°C
wind,
m/s
gust,
m/s
humid.,
%
clouds,
%
prec.,
mm/h
press.,
hPa
HPBL,
m
27 january, wed
wed2700:000e3798100 0.3 996384
03:000e3698100 0.7 996387
06:00−2e259598 0.2 996193
09:00−3ene119888 0.2 99624
12:00−1ssw009263 0.0 998179
15:00−1sw128866 0.0 999396
18:00−1wsw018992 0.0 100129
21:00−1s129395 0.0 1002129
28 january, thu
thu2800:00−2s129595 0.0 100369
03:00−2sse129691 0.0 100455
06:00−2se239695 0.1 1004135
09:00−3se239896 0.1 1005120
12:00−2se239388 0.1 1005261
15:00−1ese139194 0.1 1004321
18:00−2ese1396100 0.1 1003184
21:00−2e1296100 0.2 1002139
29 january, fri
fri2900:00−2ene1298100 0.2 100085
03:00−2ne1398100 0.6 998126
06:00−2ne2497100 0.6 996212
09:00−3nne2398100 1.0 995111
12:00−2nne2494100 0.3 994314
15:00−1ne2392100 0.4 992290
18:00−1e1196100 0.0 99242
21:00−3wsw0097100 0.0 99121
30 january, sat
sat3000:00−2wnw1195100 0.0 99034
03:00−3w1196100 0.0 98930
06:00−4wsw2497100 0.0 987142
09:00−5wsw2596100 0.0 987161
12:00−3wsw2591100 0.0 987396
15:00−2wsw3686100 0.1 988590
18:00−4wsw3685100 0.0 988703
21:00−5sw2791100 0.1 989480
31 january, sun
sun3100:00−5sw2793100 0.1 989455
03:00−5sw3793100 0.1 990529
06:00−5sw2794100 0.1 989547
09:00−6sw259597 0.1 990245
12:00−4ssw2491100 0.2 991395
15:00−4sw3681100 0.4 991760
18:00−5wsw2592100 0.2 992506
21:00−6wsw3692100 0.5 993476